Starlink 6293

operational
NORAD ID: 57354 Int'l Des: 2023-099 Owner: SPXS Country: US Constellation: starlink
LEOCIRCULAR

关于 Starlink 6293

正在加载描述...

实时位置

正在加载3D地球...

即将过境

高度历史

Altitude vs Time

uPlot chart will show altitude changes over time

两行轨道根数

1 57354U 23099AC 25260.51816357 -.00001660 00000-0 -10792-3 0 9995
2 57354 43.0039 97.2044 0001133 269.8305 90.2407 15.02518225120211
Epoch: Sep 17, 2025 • Age: 35 hours

当前状态

高度 571.7 km
速度 7.58 km/s
星下点 -43.11°S, 17.42°E
发射日期 Jul 16, 2023
运行时间 2.1 years
类型 internet

技术详情

分类 Payload
质量 305.00 kg
干质量 290.00 kg
总质量 305.00 kg
长度 0.20 m
直径 2.80 m
跨度 9.00 m
形状 Box + pan
制造商 SPXS
平台类型 Starlink
阶段状态 In Orbit
所有者/国家 SPXS/US

大型星座

Loading constellations...